SWA3171 KMCO-KPBI

Flight info

Callsign SWA3171
Flight time 0h 31m
Altitude 19000
Route DDANY3 BORRD CPTAN3
Aircraft B737/M-SADE2E3GIJ4RWZ/LB1D1

Departure

Time 2026-04-14 13:50
Airport Orlando International Airport (KMCO)

Arrival

Time 2026-04-14 14:21
Airport Palm Beach International Airport (KPBI)
Time Latitude Longitude Altitude Speed Heading
2026-04-14 13:37 28.43377 -81.30095 93 ft 0 kts 45°
2026-04-14 13:41 28.43371 -81.30101 95 ft 4 kts 45°
2026-04-14 13:41 28.43352 -81.30123 93 ft 4 kts 49°
2026-04-14 13:42 28.43344 -81.30148 93 ft 4 kts 90°
2026-04-14 13:42 28.43344 -81.30171 94 ft 0 kts 90°
2026-04-14 13:46 28.43343 -81.30160 94 ft 2 kts 102°
2026-04-14 13:46 28.43332 -81.30140 93 ft 5 kts 123°
2026-04-14 13:46 28.43306 -81.30096 96 ft 9 kts 123°
2026-04-14 13:46 28.43279 -81.30030 94 ft 10 kts 89°
2026-04-14 13:47 28.43303 -81.29947 94 ft 11 kts 69°
2026-04-14 13:47 28.43332 -81.29861 94 ft 12 kts 69°
2026-04-14 13:47 28.43387 -81.29804 94 ft 12 kts 360°
2026-04-14 13:47 28.43467 -81.29804 96 ft 11 kts 360°
2026-04-14 13:48 28.43543 -81.29792 94 ft 11 kts 36°
2026-04-14 13:48 28.43551 -81.29712 95 ft 10 kts 94°
2026-04-14 13:48 28.43546 -81.29630 97 ft 10 kts 94°
2026-04-14 13:48 28.43508 -81.29587 98 ft 9 kts 179°
2026-04-14 13:49 28.43419 -81.29586 98 ft 31 kts 179°
2026-04-14 13:49 28.42962 -81.29582 98 ft 99 kts 179°
2026-04-14 13:49 28.42087 -81.29572 96 ft 150 kts 179°
2026-04-14 13:49 28.40970 -81.29559 427 ft 163 kts 176°
2026-04-14 13:50 28.39835 -81.29538 1094 ft 157 kts 175°
2026-04-14 13:50 28.38751 -81.29474 1799 ft 160 kts 166°
2026-04-14 13:50 28.37683 -81.28869 2184 ft 188 kts 143°
2026-04-14 13:50 28.36495 -81.27988 2473 ft 219 kts 144°
2026-04-14 13:51 28.35167 -81.27011 3006 ft 236 kts 145°
2026-04-14 13:51 28.33829 -81.25799 3609 ft 252 kts 133°
2026-04-14 13:51 28.32650 -81.24301 4531 ft 256 kts 121°
2026-04-14 13:51 28.32107 -81.22388 5445 ft 258 kts 97°
2026-04-14 13:52 28.31886 -81.20381 6363 ft 264 kts 96°
2026-04-14 13:52 28.31671 -81.18294 7269 ft 269 kts 95°
2026-04-14 13:52 28.31450 -81.16193 8160 ft 275 kts 96°
2026-04-14 13:52 28.31217 -81.14047 9110 ft 281 kts 96°
2026-04-14 13:53 28.30973 -81.11866 10120 ft 286 kts 97°
2026-04-14 13:53 28.30715 -81.09607 10707 ft 306 kts 97°
2026-04-14 13:53 28.30424 -81.07089 10950 ft 336 kts 97°
2026-04-14 13:53 28.30115 -81.04444 11560 ft 348 kts 97°
2026-04-14 13:54 28.29793 -81.01703 12424 ft 353 kts 97°
2026-04-14 13:54 28.29465 -80.98918 13291 ft 359 kts 97°
2026-04-14 13:54 28.29129 -80.96085 14112 ft 366 kts 97°
2026-04-14 13:54 28.28787 -80.93199 14835 ft 373 kts 97°
2026-04-14 13:55 28.28438 -80.90258 15578 ft 379 kts 97°
2026-04-14 13:55 28.28077 -80.87329 16428 ft 382 kts 99°
2026-04-14 13:55 28.27419 -80.84442 17258 ft 387 kts 109°
2026-04-14 13:55 28.26406 -80.81591 18024 ft 394 kts 112°
2026-04-14 13:56 28.25315 -80.78710 18721 ft 401 kts 112°
2026-04-14 13:56 28.24223 -80.75783 19152 ft 404 kts 111°
2026-04-14 13:56 28.23146 -80.72826 19253 ft 406 kts 111°
2026-04-14 13:56 28.22000 -80.69896 19257 ft 407 kts 118°
2026-04-14 13:57 28.20390 -80.67268 19279 ft 407 kts 130°
2026-04-14 13:57 28.18364 -80.65028 19264 ft 408 kts 142°
2026-04-14 13:57 28.16048 -80.63185 19272 ft 407 kts 146°
2026-04-14 13:57 28.13719 -80.61441 19249 ft 407 kts 147°
2026-04-14 13:58 28.11349 -80.59680 19254 ft 407 kts 147°
2026-04-14 13:58 28.08985 -80.57911 19262 ft 407 kts 146°
2026-04-14 13:58 28.06633 -80.56132 19262 ft 407 kts 146°
2026-04-14 13:58 28.04282 -80.54342 19264 ft 407 kts 146°
2026-04-14 13:59 28.01935 -80.52548 19264 ft 407 kts 146°
2026-04-14 13:59 27.99591 -80.50755 19262 ft 406 kts 146°
2026-04-14 13:59 27.97252 -80.48965 19261 ft 406 kts 146°
2026-04-14 13:59 27.94914 -80.47179 19257 ft 405 kts 146°
2026-04-14 14:00 27.92576 -80.45396 19271 ft 404 kts 146°
2026-04-14 14:00 27.90094 -80.43922 19267 ft 403 kts 159°
2026-04-14 14:00 27.87478 -80.42860 19243 ft 398 kts 161°
2026-04-14 14:00 27.84840 -80.41873 19268 ft 401 kts 162°
2026-04-14 14:01 27.82170 -80.40874 19281 ft 405 kts 162°
2026-04-14 14:01 27.79511 -80.39853 19278 ft 403 kts 161°
2026-04-14 14:01 27.76868 -80.38813 19268 ft 402 kts 161°
2026-04-14 14:01 27.74240 -80.37765 19272 ft 401 kts 161°
2026-04-14 14:02 27.71607 -80.36710 19276 ft 401 kts 160°
2026-04-14 14:02 27.68979 -80.35657 19287 ft 401 kts 160°
2026-04-14 14:02 27.66351 -80.34603 19275 ft 401 kts 160°
2026-04-14 14:02 27.63781 -80.33397 19152 ft 397 kts 155°
2026-04-14 14:03 27.61289 -80.32066 18615 ft 395 kts 154°
2026-04-14 14:03 27.58834 -80.30712 17996 ft 391 kts 153°
2026-04-14 14:03 27.56403 -80.29381 17384 ft 387 kts 154°
2026-04-14 14:03 27.53981 -80.28079 16597 ft 387 kts 154°
2026-04-14 14:04 27.51547 -80.26791 15935 ft 385 kts 154°
2026-04-14 14:04 27.49126 -80.25515 15328 ft 381 kts 154°
2026-04-14 14:04 27.46740 -80.24260 14748 ft 376 kts 154°
2026-04-14 14:04 27.44387 -80.23023 14177 ft 371 kts 154°
2026-04-14 14:05 27.42064 -80.21800 13521 ft 367 kts 154°
2026-04-14 14:05 27.39767 -80.20592 12904 ft 362 kts 154°
2026-04-14 14:05 27.37499 -80.19399 12306 ft 357 kts 154°
2026-04-14 14:05 27.35264 -80.18224 11720 ft 352 kts 154°
2026-04-14 14:06 27.33059 -80.17065 11152 ft 348 kts 154°
2026-04-14 14:06 27.30877 -80.15918 10582 ft 344 kts 153°
2026-04-14 14:06 27.28750 -80.14802 10379 ft 329 kts 153°
2026-04-14 14:06 27.26724 -80.13740 10210 ft 314 kts 153°
2026-04-14 14:07 27.24783 -80.12733 10024 ft 301 kts 154°
2026-04-14 14:07 27.22916 -80.11825 9961 ft 285 kts 155°
2026-04-14 14:07 27.21115 -80.10962 9540 ft 284 kts 155°
2026-04-14 14:07 27.19313 -80.10096 9177 ft 281 kts 154°
2026-04-14 14:08 27.17525 -80.09232 8783 ft 279 kts 154°
2026-04-14 14:08 27.15748 -80.08373 8396 ft 277 kts 154°
2026-04-14 14:08 27.13982 -80.07518 8022 ft 276 kts 154°
2026-04-14 14:08 27.12229 -80.06660 7638 ft 274 kts 154°
2026-04-14 14:09 27.10489 -80.05798 7267 ft 273 kts 153°
2026-04-14 14:09 27.08756 -80.04938 6900 ft 272 kts 153°
2026-04-14 14:09 27.07027 -80.04081 6500 ft 272 kts 153°
2026-04-14 14:09 27.05341 -80.03245 6126 ft 270 kts 153°
2026-04-14 14:10 27.03624 -80.02395 5752 ft 269 kts 153°
2026-04-14 14:10 27.01918 -80.01552 5375 ft 267 kts 153°
2026-04-14 14:10 27.00227 -80.00716 5019 ft 264 kts 153°
2026-04-14 14:10 26.98580 -79.99902 4659 ft 262 kts 154°
2026-04-14 14:11 26.96899 -79.99117 4300 ft 261 kts 162°
2026-04-14 14:11 26.95102 -79.99150 4053 ft 262 kts 196°
2026-04-14 14:11 26.93504 -80.00141 3829 ft 268 kts 217°
2026-04-14 14:11 26.92290 -80.01730 3566 ft 270 kts 237°
2026-04-14 14:12 26.91390 -80.03558 3326 ft 267 kts 241°
2026-04-14 14:12 26.90539 -80.05391 3085 ft 262 kts 242°
2026-04-14 14:12 26.89717 -80.07165 3005 ft 250 kts 242°
2026-04-14 14:12 26.88922 -80.08868 2999 ft 245 kts 240°
2026-04-14 14:13 26.88130 -80.10550 2978 ft 241 kts 241°
2026-04-14 14:13 26.87372 -80.12151 2955 ft 222 kts 240°
2026-04-14 14:13 26.86684 -80.13602 2949 ft 199 kts 241°
2026-04-14 14:13 26.86071 -80.14892 2962 ft 181 kts 240°
2026-04-14 14:14 26.85482 -80.16123 2976 ft 184 kts 240°
2026-04-14 14:14 26.84895 -80.17352 2972 ft 180 kts 240°
2026-04-14 14:14 26.84316 -80.18563 2964 ft 178 kts 239°
2026-04-14 14:14 26.83744 -80.19758 2962 ft 179 kts 240°
2026-04-14 14:15 26.83161 -80.20976 2981 ft 182 kts 240°
2026-04-14 14:15 26.82551 -80.22192 2970 ft 182 kts 230°
2026-04-14 14:15 26.81561 -80.22892 2979 ft 171 kts 185°
2026-04-14 14:15 26.80440 -80.22698 2809 ft 166 kts 147°
2026-04-14 14:16 26.79590 -80.21908 2643 ft 160 kts 132°
2026-04-14 14:16 26.78813 -80.21060 2451 ft 157 kts 131°
2026-04-14 14:16 26.78097 -80.20274 2316 ft 138 kts 130°
2026-04-14 14:17 26.76854 -80.18902 1979 ft 123 kts 130°
2026-04-14 14:17 26.76259 -80.18243 1866 ft 123 kts 130°
2026-04-14 14:17 26.75644 -80.17562 1808 ft 123 kts 129°
2026-04-14 14:17 26.75056 -80.16911 1766 ft 121 kts 129°
2026-04-14 14:18 26.74462 -80.16247 1644 ft 126 kts 129°
2026-04-14 14:18 26.73834 -80.15547 1340 ft 121 kts 129°
2026-04-14 14:18 26.73287 -80.14940 1178 ft 113 kts 129°
2026-04-14 14:18 26.72723 -80.14314 1036 ft 116 kts 129°
2026-04-14 14:19 26.72146 -80.13674 888 ft 118 kts 130°
2026-04-14 14:19 26.71561 -80.13024 771 ft 118 kts 129°
2026-04-14 14:19 26.70977 -80.12372 609 ft 119 kts 130°
2026-04-14 14:19 26.70381 -80.11720 443 ft 119 kts 130°
2026-04-14 14:20 26.69804 -80.11082 241 ft 115 kts 131°
2026-04-14 14:20 26.69244 -80.10475 59 ft 112 kts 131°
2026-04-14 14:20 26.68874 -80.10064 23 ft 105 kts 130°
2026-04-14 14:20 26.68482 -80.09625 21 ft 51 kts 135°
2026-04-14 14:21 26.68380 -80.09501 21 ft 0 kts 116°
2026-04-14 14:21 26.68379 -80.09499 21 ft 1 kts 116°
2026-04-14 14:21 26.68374 -80.09480 21 ft 4 kts 99°
2026-04-14 14:21 26.68370 -80.09440 21 ft 6 kts 92°
2026-04-14 14:22 26.68369 -80.09389 21 ft 6 kts 88°
2026-04-14 14:22 26.68403 -80.09371 21 ft 7 kts 340°
2026-04-14 14:22 26.68449 -80.09387 22 ft 7 kts
2026-04-14 14:22 26.68487 -80.09353 21 ft 7 kts 46°
2026-04-14 14:23 26.68530 -80.09348 21 ft 7 kts 321°
2026-04-14 14:23 26.68565 -80.09394 21 ft 8 kts 309°
2026-04-14 14:23 26.68609 -80.09442 22 ft 9 kts 318°
2026-04-14 14:23 26.68658 -80.09492 23 ft 10 kts 318°
2026-04-14 14:24 26.68712 -80.09488 21 ft 9 kts 47°
2026-04-14 14:24 26.68754 -80.09436 21 ft 9 kts 48°
2026-04-14 14:24 26.68797 -80.09383 21 ft 9 kts 48°
2026-04-14 14:24 26.68830 -80.09321 23 ft 7 kts 67°
2026-04-14 14:25 26.68803 -80.09282 21 ft 7 kts 143°
2026-04-14 14:25 26.68784 -80.09263 21 ft 3 kts 138°
2026-04-14 14:25 26.68781 -80.09260 21 ft 0 kts 138°